Tracking 25711 objects as of 22-May-2022
HD Live streaming from Space Station
objects crossing your sky now

SL-16 DEB

Track SL-16 DEB now!
10-day predictions


NORAD ID: 43375
Int'l Code: 2007-029S
Perigee: 803.8 km
Apogee: 980.4 km
Inclination: 70.9 °
Period: 102.7 minutes
Semi major axis: 7263 km
RCS: Unknown
Launch date: June 29, 2007
Source: Commonwealth of Independent States (former USSR) (CIS)
Launch site: TYURATAM MISSILE AND SPACE COMPLEX (TTMTR)

Note: This is SATELLITE DEBRIS
aabbcc
Your satellite tracking list
Your tracking list is empty




NASA's NSSDC Master Catalog

Two Line Element Set (TLE):
1 43375U 07029S   22137.75704549  .00003095  00000-0  19099-2 0  9993
2 43375  70.9035 148.5779 0121562  28.9384 145.1096 14.02564707746481
Source of the keplerian elements: AFSPC